Regional Weather Roundup
Issued by NWS New Orleans/Baton Rouge, LA

Home | Current Version | Previous Version | Text Only | Print | Product List | Glossary On
Versions: 1 2 3 4 5 6 7 8 9 10 11 12 13 14 15 16 17 18 19 20 21 22 23 24 25 26 27 28 29 30 31 32 33 34 35 36 37 38 39 40 41 42 43 44 45 46 47 48 49 50
946
ASUS44 KLIX 250913
RWRLIX
NEW ORLEANS REGIONAL WEATHER ROUNDUP
NATIONAL WEATHER SERVICE NEW ORLEANS LA
400 AM CDT TUE JUL 25 2017

NOTE: "FAIR" INDICATES FEW OR NO CLOUDS BELOW 12,000 FEET WITH NO
      SIGNIFICANT WEATHER AND/OR OBSTRUCTIONS TO VISIBILITY.
      SKY/WX - SKY CONDITION AND SIGNIFICANT WEATHER.
      TMP - AIR TEMPERATURE.     DP    - DEWPOINT TEMPERATURE.
      RH  - RELATIVE HUMIDITY.   PRES  - PRESSURE.
      HI  - HEAT INDEX.          WCI   - WIND CHILL INDEX.

*  THESE STATIONS ARE NOT NWS OR FAA STATIONS AND ARE NOT UNDER
   NWS QUALITY CONTROL.

LAZ038-040-048-061>063-065>067-069-251000-
SOUTHEAST LOUISIANA

CITY           SKY/WX    TMP DP  RH WIND       PRES   REMARKS
N.O. INTL ARPT CLOUDY    77  76  96 SW5       30.07R
N.O. LAKEFRONT PTCLDY    81  77  88 SW10      30.07R
N.O. DOWNTOWN*   N/A     80  76  87 VRB5        N/A
RESERVE*         N/A     78  75  92 W3        30.08R FOG
SLIDELL        CLOUDY    76  73  91 CALM      30.06R
BATON ROUGE    CLOUDY    79  76  90 SW5       30.07R
BOOTHVILLE     NOT AVBL
BELLE CHASSE   NOT AVBL
BOGALUSA*      CLOUDY    76  73  89 CALM      30.08R
GALLIANO*      SUNNY     76  73  92 CALM      30.07S FOG
NEW ROADS*       N/A     77  77  98 CALM      30.07R
GONZALES*        N/A     75  75  99 CALM      30.07R
HAMMOND*       MOCLDY    77  73  88 CALM      30.07R
HOUMA*         NOT AVBL
PORT FOURCHON* MOSUNNY   82  75  78 SW8       30.07F

$$

MSZ070-080>082-251000-
SOUTHERN MISSISSIPPI

CITY           SKY/WX    TMP DP  RH WIND       PRES   REMARKS
MCCOMB         CLOUDY    75  71  87 W8        30.07R
GULFPORT       MOCLDY    74  74 100 CALM      30.05R
BILOXI         PTCLDY    76  74  96 CALM      30.05S
PASCAGOULA     PTCLDY    72  69  90 CALM      30.06R

$$

COASTAL OBSERVATIONS
LAKE AND NEARSHORE STATIONS

STATION/POSITION TIME  TEMP    WIND        PRES    WAVE
                       AIR SEA DIR/SP/G            HT/PER
                 (UTC) (F)     (DEG/KT/KT) (MB)    (FT/S)
PASCAGOULA       0848   78     290/  5/  6 1017.4
WAVELAND YACHT   0848   77 83  250/  3/  4 1017.7
GRAND ISLE       0848   82 85  230/  5/  7 1018.3
SOUTHWEST PASS   0848   84     230/ 10/ 12   N/A
NEW CANAL        0848   80 85  230/  5/  8 1018.2
SHELL BEACH      0848   80 87  220/  5/  6 1018.1

OFFSHORE STATIONS

STATION/POSITION TIME  TEMP    WIND        PRES    WAVE
                       AIR SEA DIR/SP/G            HT/PER
                 (UTC) (F)     (DEG/KT/KT) (MB)    (FT/S)
64 S DAUPHIN ISL 0850   84 85  240/ 12/ 14 1017.9    2/ 5

$$





USA.gov is the U.S. government's official web portal to all federal, state and local government web resources and services.